Location: Cruquius
(52.3348°N, 4.6319°E)
Time: 20:47:42
(UTC+00:00)

Iridium 4 Rocket - Pass Details

Date: 12 May 2021
Orbit: 583 x 906 km, 86.9° (Epoch: 23 June)

Event Time Altitude Azimuth Distance (km) Brightness Sun altitude
Exits shadow 20:47:24 - 166° (SSE) 2,587 5.7 -10.2°
Reaches altitude 10° 20:47:32 10° 166° (SSE) 2,539 5.6 -10.2°
Maximum altitude 20:53:14 61° 87° (E) 1,025 4.0 -10.8°
Drops below altitude 10° 20:59:05 10° 9° (N) 2,598 6.9 -11.4°
Sets 21:01:33 0° 6° (N) 3,531 7.7 -11.6°
